Regional Weather Roundup
Issued by NWS Raleigh/Durham, NC

Current Version | Previous Version | Text Only | Print | Product List | Glossary On
Versions: 1 2 3 4 5 6 7 8 9 10 11 12 13 14 15 16 17 18 19 20 21 22 23 24 25 26 27
000
ASUS42 KRAH 060010
RWRRAH
NORTH CAROLINA WEATHER ROUNDUP
NATIONAL WEATHER SERVICE RALEIGH NC
800 PM EDT THU MAY 05 2016

NOTE: "FAIR" INDICATES FEW OR NO CLOUDS BELOW 12,000 FEET WITH NO
SIGNIFICANT WEATHER AND/OR OBSTRUCTIONS TO VISIBILITY.

NCZ001-053-055-056-065-067-060100-
WESTERN NORTH CAROLINA

CITY           SKY/WX    TMP DP  RH WIND       PRES   REMARKS
ASHEVILLE      MOCLDY    49  38  65 N13       29.75R
JEFFERSON      LGT RAIN  38  35  89 NW16G24   29.71R WCI  29
MORGANTON      RAIN      49  46  89 CALM      29.77R
HICKORY        LGT RAIN  48  45  89 NW5       29.72R
RUTHERFORDTON  CLOUDY    55  37  49 N10       29.73R
MOUNT AIRY     LGT RAIN  46  43  90 NW5       29.72S
BOONE          LGT RAIN  38  35  87 NW12G18   29.74R WCI  31
$$

NCZ021-022-025-041-071-084-088-060100-
CENTRAL NORTH CAROLINA

CITY           SKY/WX    TMP DP  RH WIND       PRES   REMARKS
CHARLOTTE      CLOUDY    53  40  61 N20G31    29.72R
GREENSBORO     RAIN      46  45  96 NW8G17    29.67R
WINSTON-SALEM  LGT RAIN  46  42  86 NW9       29.70R FOG
RALEIGH-DURHAM DRIZZLE   50  47  89 W3        29.65R
FORT BRAGG     CLOUDY    53  46  75 NW15      29.64R
FAYETTEVILLE   CLOUDY    56  46  69 N9        29.64R
BURLINGTON     LGT RAIN  48  45  89 W8        29.67R
LAURINBURG     PTCLDY    56  44  64 N9        29.67R
$$

NCZ011-015-027-028-043-044-047-080-103-060100-
NORTHEASTERN NORTH CAROLINA

CITY           SKY/WX    TMP DP  RH WIND       PRES   REMARKS
ROCKY MT-WILSO CLOUDY    54  51  90 NW6       29.61R
GREENVILLE     CLOUDY    54  54 100 CALM      29.64R
WASHINGTON     LGT RAIN  52  51  95 NE7       29.58S
ELIZABETH CITY LGT RAIN  51  49  92 N16       29.59F
MANTEO         LGT RAIN  50  50 100 N18G25    29.58R
CAPE HATTERAS  CLOUDY    54  52  93 VRB7      29.58R
$$

NCZ078-087-090-091-093-098-101-060100-
SOUTHEASTERN NORTH CAROLINA

CITY           SKY/WX    TMP DP  RH WIND       PRES   REMARKS
LUMBERTON      PTCLDY    58  46  64 N8        29.65R
GOLDSBORO      MOCLDY    57  57 100 N5        29.59R
KINSTON        MOCLDY    54  54 100 CALM      29.61R
KENANSVILLE    CLOUDY    58  50  75 CALM      29.62R
NEW BERN       CLOUDY    56  52  86 N8        29.61R
CHERRY POINT   CLOUDY    56  52  86 N9        29.61R
BEAUFORT       MOCLDY    56  53  90 N9        29.59R
JACKSONVILLE   CLOUDY    56  52  86 NW8       29.61R
WILMINGTON     CLOUDY    59  46  62 NW10      29.63R
$$





USA.gov is the U.S. government's official web portal to all federal, state and local government web resources and services.